TimeEST,TemperatureF,Dew PointF,Humidity,Sea Level PressureIn,VisibilityMPH,Wind Direction,Wind SpeedMPH,Gust SpeedMPH,PrecipitationIn,Events,Conditions,WindDirDegrees,DateUTC
12:53 AM,62.1,59.0,90,30.17,9.0,North,9.2,-,0.00,Rain,Light Rain,360,2013-01-20 05:53:00
1:53 AM,61.0,60.1,97,30.15,8.0,North,9.2,-,0.01,Rain,Light Rain,350,2013-01-20 06:53:00
2:53 AM,61.0,60.1,97,30.14,10.0,North,8.1,-,0.00,,Mostly Cloudy,360,2013-01-20 07:53:00
3:53 AM,61.0,59.0,93,30.14,10.0,Calm,Calm,-,N/A,,Mostly Cloudy,0,2013-01-20 08:53:00
4:44 AM,60.8,59.0,94,30.14,8.0,Calm,Calm,-,N/A,,Mostly Cloudy,0,2013-01-20 09:44:00
4:53 AM,60.1,59.0,96,30.14,8.0,Calm,Calm,-,N/A,,Mostly Cloudy,0,2013-01-20 09:53:00
5:53 AM,61.0,60.1,97,30.14,8.0,NNW,6.9,-,N/A,,Overcast,340,2013-01-20 10:53:00
6:45 AM,60.8,59.0,94,30.15,8.0,NNW,6.9,-,N/A,,Overcast,340,2013-01-20 11:45:00
6:53 AM,60.1,59.0,96,30.14,8.0,NNW,6.9,-,N/A,,Overcast,340,2013-01-20 11:53:00
7:02 AM,60.8,59.0,94,30.16,8.0,NNW,8.1,-,N/A,,Overcast,340,2013-01-20 12:02:00
7:46 AM,60.8,59.0,94,30.17,9.0,North,8.1,-,N/A,,Overcast,360,2013-01-20 12:46:00
7:53 AM,60.1,59.0,96,30.17,8.0,North,6.9,-,N/A,,Overcast,350,2013-01-20 12:53:00
8:06 AM,60.8,60.8,100,30.18,2.0,North,8.1,-,N/A,,Overcast,350,2013-01-20 13:06:00
8:53 AM,62.1,61.0,96,30.18,10.0,NNE,8.1,-,N/A,,Overcast,20,2013-01-20 13:53:00
9:24 AM,62.6,60.8,94,30.19,10.0,North,8.1,-,N/A,,Overcast,350,2013-01-20 14:24:00
9:53 AM,63.0,61.0,93,30.19,10.0,North,9.2,-,N/A,,Mostly Cloudy,350,2013-01-20 14:53:00
10:19 AM,64.4,60.8,88,30.19,10.0,North,9.2,-,N/A,,Overcast,360,2013-01-20 15:19:00
10:38 AM,66.2,60.8,83,30.20,10.0,North,11.5,-,N/A,,Overcast,10,2013-01-20 15:38:00
10:53 AM,64.9,60.1,84,30.19,10.0,North,9.2,-,N/A,,Overcast,10,2013-01-20 15:53:00
11:21 AM,64.4,60.8,88,30.18,10.0,North,9.2,-,N/A,,Overcast,10,2013-01-20 16:21:00
11:44 AM,66.2,60.8,83,30.17,10.0,NNE,9.2,-,N/A,,Mostly Cloudy,20,2013-01-20 16:44:00
11:51 AM,66.2,60.8,83,30.17,10.0,North,9.2,-,N/A,,Overcast,10,2013-01-20 16:51:00
11:53 AM,66.9,61.0,81,30.16,10.0,North,10.4,-,N/A,,Overcast,10,2013-01-20 16:53:00
12:01 PM,68.0,60.8,78,30.16,10.0,NNE,9.2,-,N/A,,Overcast,20,2013-01-20 17:01:00
12:30 PM,71.6,62.6,73,30.14,10.0,North,12.7,-,N/A,,Overcast,10,2013-01-20 17:30:00
12:53 PM,70.0,62.1,76,30.12,10.0,NNE,12.7,-,N/A,,Overcast,30,2013-01-20 17:53:00
1:27 PM,73.4,60.8,65,30.10,10.0,NE,10.4,-,N/A,,Mostly Cloudy,50,2013-01-20 18:27:00
1:40 PM,73.4,60.8,65,30.09,10.0,NNE,8.1,-,N/A,,Mostly Cloudy,20,2013-01-20 18:40:00
1:50 PM,73.4,60.8,65,30.09,10.0,NNE,9.2,-,N/A,,Mostly Cloudy,30,2013-01-20 18:50:00
1:53 PM,73.0,61.0,66,30.09,10.0,NNE,8.1,-,N/A,,Mostly Cloudy,30,2013-01-20 18:53:00
2:53 PM,73.0,60.1,64,30.07,10.0,NE,9.2,-,N/A,,Mostly Cloudy,40,2013-01-20 19:53:00
3:53 PM,72.0,60.1,66,30.07,10.0,NE,11.5,-,N/A,,Mostly Cloudy,40,2013-01-20 20:53:00
4:53 PM,70.0,59.0,68,30.09,10.0,NE,11.5,-,N/A,,Mostly Cloudy,50,2013-01-20 21:53:00
5:53 PM,66.9,57.9,73,30.09,10.0,NE,10.4,-,N/A,,Mostly Cloudy,50,2013-01-20 22:53:00
6:53 PM,64.9,55.9,73,30.10,10.0,NE,8.1,-,N/A,,Scattered Clouds,50,2013-01-20 23:53:00
7:53 PM,63.0,54.0,72,30.11,10.0,NNE,8.1,-,N/A,,Partly Cloudy,30,2013-01-21 00:53:00
8:53 PM,61.0,53.1,75,30.12,10.0,NNE,6.9,-,N/A,,Clear,20,2013-01-21 01:53:00
9:53 PM,60.1,53.1,78,30.12,10.0,North,3.5,-,N/A,,Mostly Cloudy,360,2013-01-21 02:53:00
10:53 PM,61.0,54.0,78,30.12,10.0,NNE,6.9,-,N/A,,Mostly Cloudy,30,2013-01-21 03:53:00
11:53 PM,62.1,54.0,75,30.11,10.0,NNE,5.8,-,N/A,,Mostly Cloudy,30,2013-01-21 04:53:00